Location: Unspecified
(54.1780°N, 0.0000°E)
Time: 06:35:28
(UTC+00:00)

Explorer 7 - Pass Details

Date: 26 June 2019
Orbit: 485 x 680 km, 50.3° (Epoch: 18 July)

Event Time Altitude Azimuth Distance (km) Brightness Sun altitude
Rises 08:59:53 0° 245° (WSW) 2,760 10.1 44.2°
Reaches altitude 10° 09:02:08 10° 239° (WSW) 1,897 9.4 44.5°
Maximum altitude 09:06:17 45° 166° (SSE) 830 8.8 45.0°
Drops below altitude 10° 09:10:42 10° 94° (E) 2,018 10.6 45.6°
Sets 09:13:10 0° 89° (E) 2,958 11.1 45.9°
